timestamp,surface_pressure_avg,surface_temp_avg,battery_voltage,lat,long
2019-08-18 00:00:00+00:00,330.3163,18.9,12.97,47.84626,-54.09684
2019-08-18 00:10:00+00:00,338.9963,18.9,12.89,47.84626,-54.09684
2019-08-18 00:20:00+00:00,340.5813,18.89,12.97,47.84626,-54.09684
2019-08-18 00:30:00+00:00,341.963,18.82,12.97,47.84626,-54.09684
2019-08-18 00:40:00+00:00,349.7563,18.8,12.97,47.84626,-54.09684
2019-08-18 00:50:00+00:00,350.0329,18.84,12.97,47.84626,-54.09684
2019-08-18 01:00:00+00:00,346.3229,18.83,12.97,47.84626,-54.09684
2019-08-18 01:10:00+00:00,349.5596,18.82,12.89,47.84626,-54.09684
2019-08-18 01:20:00+00:00,352.2212,18.81,12.97,47.84626,-54.09684
2019-08-18 01:30:00+00:00,346.1146,18.84,12.97,47.84626,-54.09684
2019-08-18 01:40:00+00:00,342.1445,18.83,12.97,47.84626,-54.09684
2019-08-18 01:50:00+00:00,346.628,18.8,12.97,47.84626,-54.09684
2019-08-18 02:00:00+00:00,345.8612,18.8,12.89,47.84626,-54.09684
2019-08-18 02:10:00+00:00,336.468,18.8,12.81,47.84626,-54.09684
2019-08-18 02:20:00+00:00,332.0895,18.8,12.97,47.84626,-54.09684
2019-08-18 02:30:00+00:00,332.7163,18.8,12.97,47.84626,-54.09684
2019-08-18 02:40:00+00:00,323.7347,18.84,12.97,47.84626,-54.09684
2019-08-18 02:50:00+00:00,317.4847,19.03,12.97,47.84626,-54.09684
2019-08-18 03:00:00+00:00,319.803,19.06,12.89,47.84626,-54.09684
2019-08-18 03:10:00+00:00,311.0463,19.09,12.81,47.84626,-54.09684
2019-08-18 03:20:00+00:00,296.7364,19.25,12.89,47.84626,-54.09684
2019-08-18 03:30:00+00:00,298.2764,19.1,12.89,47.84626,-54.09684
2019-08-18 03:40:00+00:00,301.5314,18.9,12.97,47.84626,-54.09684
2019-08-18 03:50:00+00:00,289.5847,19.29,12.97,47.84626,-54.09684
2019-08-18 04:00:00+00:00,276.388,19.3,12.89,47.84626,-54.09684
2019-08-18 04:10:00+00:00,277.1931,19.0,12.81,47.84626,-54.09684
2019-08-18 04:20:00+00:00,274.223,19.0,12.89,47.84626,-54.09684
2019-08-18 04:30:00+00:00,261.3381,19.2,12.89,47.84626,-54.09684
2019-08-18 04:40:00+00:00,254.4214,19.29,12.97,47.84626,-54.09684
2019-08-18 04:50:00+00:00,252.7964,19.0,12.97,47.84626,-54.09684
2019-08-18 05:00:00+00:00,242.1481,19.07,12.89,47.84626,-54.09684
2019-08-18 05:10:00+00:00,227.6548,19.2,12.81,47.84626,-54.09684
2019-08-18 05:20:00+00:00,221.8515,19.2,12.89,47.84626,-54.09684
2019-08-18 05:30:00+00:00,215.9731,19.1,12.89,47.84626,-54.09684
2019-08-18 05:40:00+00:00,205.2864,19.1,12.97,47.84626,-54.09684
2019-08-18 05:50:00+00:00,198.5882,19.1,12.97,47.84626,-54.09684
2019-08-18 06:00:00+00:00,194.7731,19.1,12.89,47.84626,-54.09684
2019-08-18 06:10:00+00:00,189.8965,19.1,12.81,47.84626,-54.09684
2019-08-18 06:20:00+00:00,186.6081,19.1,12.89,47.84626,-54.09684
2019-08-18 06:30:00+00:00,183.3565,19.15,12.89,47.84626,-54.09684
2019-08-18 06:40:00+00:00,179.4448,19.13,12.89,47.84626,-54.09684
2019-08-18 06:50:00+00:00,180.2964,19.14,12.89,47.84626,-54.09684
2019-08-18 07:00:00+00:00,184.5165,19.14,12.81,47.84626,-54.09684
2019-08-18 07:10:00+00:00,181.2731,19.1,12.81,47.84626,-54.09684
2019-08-18 07:20:00+00:00,178.9515,19.0,12.89,47.84626,-54.09684
2019-08-18 07:30:00+00:00,186.7231,18.95,12.89,47.84626,-54.09684
2019-08-18 07:40:00+00:00,188.8782,18.97,12.89,47.84626,-54.09684
2019-08-18 07:50:00+00:00,185.3815,18.9,12.89,47.84626,-54.09684
2019-08-18 08:00:00+00:00,190.5881,18.9,12.81,47.84626,-54.09684
2019-08-18 08:10:00+00:00,197.2765,18.99,12.73,47.84626,-54.09684
2019-08-18 08:20:00+00:00,199.8848,18.93,12.81,47.84626,-54.09684
2019-08-18 08:30:00+00:00,203.4265,18.97,12.81,47.84626,-54.09684
2019-08-18 08:40:00+00:00,210.6664,19.0,12.89,47.84626,-54.09684
2019-08-18 08:50:00+00:00,214.0781,19.05,12.89,47.84626,-54.09684
2019-08-18 09:00:00+00:00,215.1214,19.08,12.81,47.84626,-54.09684
2019-08-18 09:10:00+00:00,219.9114,19.1,12.73,47.84626,-54.09684
2019-08-18 09:20:00+00:00,223.7014,19.1,12.81,47.84626,-54.09684
2019-08-18 09:30:00+00:00,223.6265,19.1,12.81,47.84626,-54.09684
2019-08-18 09:40:00+00:00,226.3764,19.14,12.89,47.84626,-54.09684
2019-08-18 09:50:00+00:00,233.7765,19.1,12.89,47.84626,-54.09684
2019-08-18 10:00:00+00:00,239.0614,19.1,12.89,47.84626,-54.09684
2019-08-18 10:10:00+00:00,239.2047,19.1,12.81,47.84626,-54.09684
2019-08-18 10:20:00+00:00,243.3064,19.1,12.89,47.84626,-54.09684
2019-08-18 10:30:00+00:00,253.1098,19.0,12.97,47.84626,-54.09684
2019-08-18 10:40:00+00:00,261.0581,18.98,13.05,47.84626,-54.09684
2019-08-18 10:50:00+00:00,264.9048,18.96,13.21,47.84626,-54.09684
2019-08-18 11:00:00+00:00,268.6447,18.9,13.29,47.84626,-54.09684
2019-08-18 11:10:00+00:00,273.7347,18.94,13.29,47.84626,-54.09684
2019-08-18 11:20:00+00:00,282.0064,18.99,13.53,47.84626,-54.09684
2019-08-18 11:30:00+00:00,290.4097,18.98,13.53,47.84626,-54.09684
2019-08-18 11:40:00+00:00,296.6797,18.94,13.6,47.84626,-54.09684
2019-08-18 11:50:00+00:00,302.3414,18.9,13.6,47.84626,-54.09684
2019-08-18 12:00:00+00:00,308.8547,18.9,13.6,47.84626,-54.09684
2019-08-18 12:10:00+00:00,314.0015,18.89,13.92,47.84626,-54.09684
2019-08-18 12:20:00+00:00,317.8446,18.9,14.08,47.84626,-54.09684
2019-08-18 12:30:00+00:00,322.6213,18.9,14.16,47.84626,-54.09684
2019-08-18 12:40:00+00:00,329.3563,18.8,14.32,47.84626,-54.09684
2019-08-18 12:50:00+00:00,329.7163,18.8,14.56,47.84626,-54.09684
2019-08-18 13:00:00+00:00,331.148,18.8,14.56,47.84626,-54.09684
2019-08-18 13:10:00+00:00,331.1997,18.8,14.56,47.84626,-54.09684
2019-08-18 13:20:00+00:00,328.5779,18.83,14.8,47.84626,-54.09684
2019-08-18 13:30:00+00:00,322.6863,18.9,14.64,47.84626,-54.09684
2019-08-18 13:40:00+00:00,321.7613,18.9,14.64,47.84626,-54.09684
2019-08-18 13:50:00+00:00,324.7297,18.9,14.64,47.84626,-54.09684
2019-08-18 14:00:00+00:00,324.7096,18.9,14.56,47.84626,-54.09684
2019-08-18 14:10:00+00:00,319.2546,18.94,14.32,47.84626,-54.09684
2019-08-18 14:20:00+00:00,317.9246,18.96,14.56,47.84626,-54.09684
2019-08-18 14:30:00+00:00,318.528,18.9,14.48,47.84626,-54.09684
2019-08-18 14:40:00+00:00,315.9764,18.95,14.32,47.84626,-54.09684
2019-08-18 14:50:00+00:00,307.323,19.0,14.4,47.84626,-54.09684
2019-08-18 15:00:00+00:00,307.843,19.04,14.32,47.84626,-54.09684
2019-08-18 15:10:00+00:00,307.6647,19.0,14.16,47.84626,-54.09684
2019-08-18 15:20:00+00:00,298.163,19.07,14.24,47.84626,-54.09684
2019-08-18 15:30:00+00:00,289.5181,19.09,14.4,47.84626,-54.09684
2019-08-18 15:40:00+00:00,294.0197,19.0,14.4,47.84626,-54.09684
2019-08-18 15:50:00+00:00,292.613,18.96,14.32,47.84626,-54.09684
2019-08-18 16:00:00+00:00,278.4597,19.0,14.24,47.84626,-54.09684
2019-08-18 16:10:00+00:00,271.3398,19.04,14.08,47.84626,-54.09684
2019-08-18 16:20:00+00:00,271.3815,19.0,14.24,47.84626,-54.09684
2019-08-18 16:30:00+00:00,264.1614,19.0,14.24,47.84626,-54.09684
2019-08-18 16:40:00+00:00,249.8248,19.0,14.16,47.84626,-54.09684
2019-08-18 16:50:00+00:00,245.4381,19.0,14.24,47.84626,-54.09684
2019-08-18 17:00:00+00:00,242.0097,19.0,14.16,47.84626,-54.09684
2019-08-18 17:10:00+00:00,234.5264,19.0,14.0,47.84626,-54.09684
2019-08-18 17:20:00+00:00,227.3414,19.0,14.08,47.84626,-54.09684
2019-08-18 17:30:00+00:00,220.6914,19.0,14.08,47.84626,-54.09684
2019-08-18 17:40:00+00:00,211.7731,19.0,14.16,47.84626,-54.09684
2019-08-18 17:50:00+00:00,204.6064,19.0,14.16,47.84626,-54.09684
2019-08-18 18:00:00+00:00,202.2831,19.0,14.16,47.84626,-54.09684
2019-08-18 18:10:00+00:00,198.0998,19.0,14.08,47.84626,-54.09684
2019-08-18 18:20:00+00:00,192.1731,19.02,14.24,47.84626,-54.09684
2019-08-18 18:30:00+00:00,187.3948,19.0,14.16,47.84626,-54.09684
2019-08-18 18:40:00+00:00,183.3982,19.0,14.08,47.84626,-54.09684
2019-08-18 18:50:00+00:00,177.4698,19.01,14.0,47.84626,-54.09684
2019-08-18 19:00:00+00:00,172.5632,19.07,13.92,47.84626,-54.09684
2019-08-18 19:10:00+00:00,170.7815,19.06,13.84,47.84626,-54.09684
2019-08-18 19:20:00+00:00,171.5582,19.0,13.92,47.84626,-54.09684
2019-08-18 19:30:00+00:00,172.9798,19.0,13.92,47.84626,-54.09684
2019-08-18 19:40:00+00:00,173.5948,19.0,13.92,47.84626,-54.09684
2019-08-18 19:50:00+00:00,176.8115,18.99,13.92,47.84626,-54.09684
2019-08-18 20:00:00+00:00,181.0148,18.95,13.92,47.84626,-54.09684
2019-08-18 20:10:00+00:00,185.1748,18.96,13.84,47.84626,-54.09684
2019-08-18 20:20:00+00:00,189.9681,18.98,13.84,47.84626,-54.09684
2019-08-18 20:30:00+00:00,193.1065,18.99,13.84,47.84626,-54.09684
2019-08-18 20:40:00+00:00,198.0381,19.0,13.84,47.84626,-54.09684
2019-08-18 20:50:00+00:00,206.9164,18.95,13.84,47.84626,-54.09684
2019-08-18 21:00:00+00:00,213.4181,18.9,13.76,47.84626,-54.09684
2019-08-18 21:10:00+00:00,216.3048,18.9,13.68,47.84626,-54.09684
2019-08-18 21:20:00+00:00,223.5131,18.9,13.68,47.84626,-54.09684
2019-08-18 21:30:00+00:00,228.6814,18.9,13.68,47.84626,-54.09684
2019-08-18 21:40:00+00:00,231.4997,18.9,13.6,47.84626,-54.09684
2019-08-18 21:50:00+00:00,237.6815,18.9,13.6,47.84626,-54.09684
2019-08-18 22:00:00+00:00,245.1198,18.95,13.44,47.84626,-54.09684
2019-08-18 22:10:00+00:00,246.0214,18.97,13.29,47.84626,-54.09684
2019-08-18 22:20:00+00:00,249.8264,18.98,13.29,47.84626,-54.09684
2019-08-18 22:30:00+00:00,257.9014,18.9,13.29,47.84626,-54.09684
2019-08-18 22:40:00+00:00,262.9731,18.9,13.29,47.84626,-54.09684
2019-08-18 22:50:00+00:00,264.1464,18.9,13.21,47.84626,-54.09684
2019-08-18 23:00:00+00:00,270.1431,18.9,13.13,47.84626,-54.09684
2019-08-18 23:10:00+00:00,278.5197,18.9,12.97,47.84626,-54.09684
2019-08-18 23:20:00+00:00,282.493,18.9,13.05,47.84626,-54.09684
2019-08-18 23:30:00+00:00,284.9864,18.9,13.05,47.84626,-54.09684
2019-08-18 23:40:00+00:00,295.4147,18.9,13.05,47.84626,-54.09684
2019-08-18 23:50:00+00:00,303.1331,18.94,13.05,47.84626,-54.09684
